Regional Weather Roundup
Issued by NWS

Home | Current Version | Previous Version | Text Only | Print | Product List | Glossary On
Versions: 1 2 3 4 5 6 7 8 9 10 11 12 13 14 15 16 17 18 19 20 21 22 23 24 25 26 27 28 29 30 31 32 33 34 35 36 37 38 39 40 41 42 43 44 45 46 47 48 49 50
000
ASUS43 KOAX 200310
RWRNE

WEATHER ROUNDUP FOR NEBRASKA
NATIONAL WEATHER SERVICE OMAHA NE
900 PM CST SUN NOV 19 2017

NOTES: SATELLITE DATA IS BEING USED TO AUGMENT CLOUD COVER ABOVE
       12000 FEET.
       "FAIR" INDICATES FEW OR NO CLOUDS BELOW 12,000 FEET WITH NO
       SIGNIFICANT WEATHER AND/OR OBSTRUCTIONS TO VISIBILITY.


NEZ001>004-019>022-054>056-200400-
NEBRASKA PANHANDLE

CITY           SKY/WX    TMP DP  RH WIND       PRES   REMARKS
SCOTTSBLUFF    CLOUDY    41   9  26 W9        29.88F
ALLIANCE       CLOUDY    32  12  43 W8        29.84F WCI  25
CHADRON        CLOUDY    32  16  51 CALM      29.82R
GORDON         FAIR      34  19  54 W9        29.80F WCI  26
KIMBALL        CLOUDY    31  13  46 SW7       29.92S WCI  25
SIDNEY         CLOUDY    36  15  42 W6        29.91F WCI  31
$$

NEZ057>060-069>072-079>082-200400-
SOUTHWEST NEBRASKA

CITY           SKY/WX    TMP DP  RH WIND       PRES   REMARKS
NORTH PLATTE   CLOUDY    35  23  61 NE5       29.88F WCI  31
IMPERIAL       CLOUDY    37  21  52 CALM      29.90F
LEXINGTON      CLOUDY    46  26  45 SW6       29.90F
MCCOOK         CLOUDY    43  25  49 SW9       29.90F
OGALLALA       CLEAR     33  21  61 CALM      29.88F
$$

NEZ005>010-023>029-035>040-094-200400-
NORTH CENTRAL NEBRASKA

CITY           SKY/WX    TMP DP  RH WIND       PRES   REMARKS
VALENTINE      PTCLDY    40  21  46 CALM      29.79F
AINSWORTH      PTCLDY    37  23  57 S7        29.81F WCI  31
BROKEN BOW     CLOUDY    36  23  59 W3        29.87F
O`NEILL        CLOUDY    37  27  65 SW7       29.84F WCI  32
ORD            CLOUDY    31  23  72 SW6       29.86F WCI  25
THEDFORD       CLOUDY    43  23  44 S9        29.85F
$$

NEZ041-046>049-061>064-073>077-083>087-200400-
SOUTH CENTRAL NEBRASKA

CITY           SKY/WX    TMP DP  RH WIND       PRES   REMARKS
GRAND ISLAND   CLOUDY    44  25  47 S9        29.91F
AURORA         CLOUDY    39  24  55 SW9       29.91F WCI  33
HASTINGS       CLOUDY    42  22  44 S9        29.92F
HEBRON         CLOUDY    45  22  41 S10       29.95F
HOLDREGE       CLOUDY    40  25  55 S10       29.91F WCI  33
KEARNEY        CLOUDY    43  24  47 SW12      29.91F
YORK           CLOUDY    37  25  60 SW5       29.92F WCI  34
$$

NEZ011>018-030>034-042>045-200400-
NORTHEAST NEBRASKA

CITY           SKY/WX    TMP DP  RH WIND       PRES   REMARKS
NORFOLK        CLOUDY    40  26  57 S13       29.87F WCI  32
ALBION         CLOUDY    38  26  61 SE6       29.88F WCI  34
BLAIR          CLEAR     42  27  55 S10       29.92F
COLUMBUS       PTCLDY    34  24  67 CALM      29.91F
FREMONT        CLOUDY    45  26  47 S7        29.92S
TEKAMAH        CLOUDY    33  25  72 S9        29.91F WCI  25
WAYNE          CLOUDY    37  24  59 S7        29.88S WCI  32
$$

NEZ050>053-065>068-078-088>093-200400-
SOUTHEAST NEBRASKA

CITY           SKY/WX    TMP DP  RH WIND       PRES   REMARKS
LINCOLN        CLOUDY    36  24  62 S8        29.95F WCI  30
OMAHA EPPLEY   PTCLDY    38  26  62 SE10      29.94F WCI  31
BEATRICE       CLOUDY    43  25  49 S9        29.96S
FALLS CITY     CLOUDY    44  25  47 S15       29.99F
NEBRASKA CITY  CLOUDY    39  27  61 S9        29.96S WCI  33
PLATTSMOUTH    CLEAR     42  27  56 S13       29.94F
$$

NEZ044-045-051>053-067-200400-
OMAHA AREA

CITY           SKY/WX    TMP DP  RH WIND       PRES   REMARKS
OMAHA EPPLEY   PTCLDY    38  26  62 SE10      29.94F WCI  31
BLAIR          CLEAR     42  27  55 S10       29.92F
FREMONT        CLOUDY    45  26  47 S7        29.92S
MILLARD        CLEAR     37  27  69 S3        29.94F
OFFUTT AFB     CLEAR     40  24  52 S6        29.94F
PLATTSMOUTH    CLEAR     42  27  56 S13       29.94F
WAHOO          FAIR      38  25  60 S6        29.93S WCI  33
$$




USA.gov is the U.S. government's official web portal to all federal, state and local government web resources and services.